Simultaneous Nadir Overpasses (SNOs) Predictions

Prediction of SNOs between NOAA-19 and TERRA Satellite Orbit:

Table of predicted SNOs for the next 14.0 days since TLE Epoch: 7/4/2020
Index Date (NOAA-19) Time (NOAA-19) Lat,Lon (NOAA-19) SZA (NOAA-19 ) Date (TERRA) Time (TERRA) Lat,Lon (TERRA) SZA (TERRA ) Distance(km) Time Diff (sec)
1 07/05/2020 06:47:41 -79.55, -73.36 121.96 07/05/2020 06:47:53 -79.53, -73.43 121.98 2.72 12
2 07/05/2020 07:38:30 79.35, 95.88 58.06 07/05/2020 07:37:22 79.41, 93.43 57.86 50.84 68
3 07/07/2020 12:20:54 79.56, 23.28 58.28 07/07/2020 12:21:36 79.54, 23.21 58.26 3.23 42
4 07/07/2020 13:11:57 -79.54,-169.23 121.72 07/07/2020 13:11:02 -79.54,-169.11 121.73 2.32 55
5 07/09/2020 17:54:15 -79.57, 119.92 121.46 07/09/2020 17:55:19 -79.55, 119.89 121.46 2.47 64
6 07/09/2020 18:45:09 79.53, -72.41 58.55 07/09/2020 18:44:45 79.55, -72.51 58.54 2.50 24
7 07/12/2020 00:18:31 -79.54, 24.28 121.16 07/12/2020 00:18:29 -79.56, 24.17 121.15 3.36 2
8 07/14/2020 05:51:44 79.58, 120.66 59.17 07/14/2020 05:52:12 79.56, 120.73 59.17 2.63 28
9 07/14/2020 06:42:48 -79.54, -71.68 120.82 07/14/2020 06:41:40 -79.54, -71.82 120.87 2.78 68
10 07/16/2020 11:25:06 -79.58,-142.62 120.47 07/16/2020 11:25:56 -79.58,-142.59 120.45 0.90 50
